Flag Weather past 2 weeks in Tuba City, Arizona, U.S.A.

Now
21 °F

Clear.


Feels Like: 21 °F
Forecast: 31 / 63 °F
Wind: No wind

Location: Grand Canyon National Park Airport

Current Time: Nov 29, 2014 at 12:31:59 AM

Latest Report: Nov 28, 2014 at 11:54 PM


Visibility: 10 mi

Pressure: 30.01 "Hg

Humidity: 47%

Dew point: 4 °F

Location of Tuba CityLocation

Historic Weather in Tuba City — Graph

°F

Tuba City temperature yesterday

Maximum temperature yesterday: 65 °F (at 1:54 PM)
Minimum temperature yesterday: 15 °F (at 5:54 AM)
Average temperature yesterday: 37 °F

Past Weeks' High & Low Weather Summary

 TemperatureHumidityPressure
High66 °F (Nov 27, 2:54 PM)100% (Nov 15, 3:54 AM)30.58 "Hg (Nov 15, 3:54 AM)
Low4 °F (Nov 24, 6:54 AM)6% (Nov 19, 12:54 PM)29.84 "Hg (Nov 15, 3:54 PM)
Average33 °F46%30.21 "Hg
* Reported Nov 13 10:54 PM — Nov 28 10:54 PM, Tuba City, Weather by CustomWeather, © 2014

Note: Actual official high and low records may vary slightly from our data, if they occured in-between our weather recording intervals... More about our weather records

Advertising

Tuba City weather history for previous 24 hours

 ConditionsComfort  
Time TempWeatherWind HumidityBarometerVisibility
10:54 PM
Nov 28
23 °FClear.No wind46%30.03 "Hg10 mi
9:54 PM21 °FClear.No wind43%30.05 "Hg10 mi
8:54 PM28 °FClear.No wind37%30.11 "Hg10 mi
7:54 PM27 °FClear.No wind35%30.19 "Hg10 mi
6:54 PM34 °FClear.5 mph31%30.17 "Hg10 mi
5:54 PM46 °FClear.6 mph19%30.12 "Hg10 mi
4:54 PM60 °FSunny.12 mph11%30.06 "Hg10 mi
3:54 PM64 °FSunny.16 mph9%30.04 "Hg10 mi
2:54 PM64 °FSunny.12 mph10%30.05 "Hg10 mi
1:54 PM65 °FSunny.17 mph9%30.06 "Hg10 mi
12:54 PM63 °FSunny.12 mph11%30.10 "Hg10 mi
11:54 AM61 °FSunny.10 mph12%30.14 "Hg10 mi
10:54 AM59 °FSunny.14 mph13%30.18 "Hg10 mi
9:54 AM55 °FSunny.9 mph16%30.19 "Hg10 mi
8:54 AM33 °FSunny.No wind35%30.28 "Hg10 mi
7:54 AM18 °FSunny.No wind54%30.34 "Hg10 mi
6:54 AM15 °FClear.3 mph58%30.31 "Hg10 mi
5:54 AM15 °FClear.No wind58%30.29 "Hg10 mi
4:54 AM16 °FClear.No wind56%30.24 "Hg10 mi
3:54 AM18 °FClear.No wind52%30.22 "Hg10 mi
2:54 AM18 °FClear.No wind52%30.22 "Hg10 mi
1:54 AM18 °FClear.No wind52%30.23 "Hg10 mi
12:54 AM20 °FClear.No wind48%30.23 "Hg10 mi
Weather by CustomWeather, © 2014

See weather overviewHow to use our weather pages